Regional Weather Roundup
Issued by NWS

Home | Current Version | Previous Version | Text Only | Print | Product List | Glossary Off
Versions: 1 2 3 4 5 6 7 8 9 10 11 12 13 14 15 16 17 18 19 20 21 22 23 24 25 26 27 28 29 30 31 32 33 34 35 36 37 38 39 40 41 42 43 44 45 46 47 48 49 50

000
ASUS43 KIND 020309
RWRIN

WEATHER ROUNDUP FOR INDIANA
NATIONAL WEATHER SERVICE INDIANAPOLIS IN
1100 PM EDT MON SEP 01 2014

NOTE: "FAIR" INDICATES FEW OR NO CLOUDS BELOW 12,000 FEET WITH NO
SIGNIFICANT WEATHER AND/OR OBSTRUCTIONS TO VISIBILITY.

* - STATION DOES NOT REPORT WEATHER SUCH AS PRECIPITATION OR FOG.

+ - STATION NOT QUALITY CONTROLLED BY THE NATIONAL WEATHER SERVICE.
    USE DATA WITH CAUTION...ESPECIALLY DEWPOINT AND RELATIVE
    HUMIDITY OBSERVATIONS.

INZ001>003-010>013-019-020-020400-
NORTHWEST INDIANA

CITY           SKY/WX    TMP DP  RH WIND       PRES   REMARKS
GARY /AIRPORT/ CLEAR     75  67  74 SW5       29.85S
KNOX *+        CLEAR     69  65  86 SW6       29.86S
LA PORTE +     CLEAR     70  65  84 SW7       29.87S
MICHIGAN CITY+ CLEAR     72  63  73 SW8       29.85S
MONTICELLO +   CLEAR     68  65  90 S5        29.88S
RENSSELAER +   CLEAR     68  68 100 SW3       29.89R
VALPARAISO     CLEAR     71  66  84 SW10      29.87S

$$

LMZ046-743>745-020400-
SOUTHERN LAKE MICHIGAN

STATION/POSITION TIME  TEMP WIND        PRES
                       AIR  DIR/SP/G
                 (UTC) (F)  (DEG/KT/KT) (MB)
MICHIGAN CITY    0300   74  190/ 13/ 16   N/A

$$

INZ004-005-014>016-021>024-020400-
NORTH CENTRAL INDIANA

CITY           SKY/WX    TMP DP  RH WIND       PRES   REMARKS
GOSHEN         CLEAR     73  66  78 SW10      29.86R
LOGANSPORT +   CLEAR     66  63  88 SW6       29.90S
PERU/GRISSOM   CLEAR     69  68  98 SW7       29.90R
ROCHESTER +    CLEAR     72  66  83 SW6       29.89S
SOUTH BEND     CLEAR     73  66  78 SW5       29.86R
WARSAW +       CLEAR     72  64  78 W6        29.88S

$$

INZ006>009-017-018-025>027-020400-
NORTHEAST INDIANA

CITY           SKY/WX    TMP DP  RH WIND       PRES   REMARKS
ANGOLA *+      CLEAR     72  64  78 SW7       29.87R
AUBURN +       CLEAR     73  64  73 SW6       29.89R
FORT WAYNE     PTCLDY    72  67  84 SW10      29.90R
HUNTINGTON +   CLEAR     72  65  79 W9        29.89S

$$

INZ028-029-035-036-043>045-051>053-020400-
WEST CENTRAL INDIANA

CITY           SKY/WX    TMP DP  RH WIND       PRES   REMARKS
GREENCASTLE +  CLEAR     70  66  88 CALM      29.93S
LAFAYETTE      CLEAR     69  65  86 SW3       29.89S
TERRE HAUTE    CLEAR     72  66  81 S6        29.92S

$$

INZ030>032-037>040-046>048-054>057-064-065-020400-
CENTRAL INDIANA

CITY           SKY/WX    TMP DP  RH WIND       PRES   REMARKS
CP ATTERBURY + CLEAR     72  70  94 S3        29.95S
FRANKFORT +    CLEAR     68  65  89 SW5       29.92S
INDIANAPOLIS   PTCLDY    73  67  81 SW9       29.91S
-EAGLE CREEK   CLEAR     74  65  73 SW6       29.92R
KOKOMO *+      CLEAR     70  63  78 SW7       29.90S
MARION +       CLEAR     70  66  86 SW6       29.92R
MT COMFORT *+  PTCLDY    73  73 100 SW7       29.93S
SHELBYVILLE    CLEAR     74  70  87 S7        29.93S
ZIONSVILLE +   CLEAR     73  65  76 SW8       29.93R

$$

INZ033-034-041-042-049-050-058-059-020400-
EAST CENTRAL INDIANA

CITY           SKY/WX    TMP DP  RH WIND       PRES   REMARKS
MUNCIE         PTCLDY    74  67  78 SW6       29.92R

$$

INZ060-061-067>069-081>083-085>088-020400-
SOUTHWEST INDIANA

CITY           SKY/WX    TMP DP  RH WIND       PRES   REMARKS
EVANSVILLE     MOCLDY    78  73  84 S3        29.96S
WASHINGTON +   MOCLDY    76  71  84 SW8       29.94R

$$

INZ062-063-066-070>080-084-089>092-020400-
SOUTH CENTRAL AND SOUTHEAST INDIANA

CITY           SKY/WX    TMP DP  RH WIND       PRES   REMARKS
BEDFORD +      PTCLDY    75  70  83 S5        29.95
BLOOMINGTON    CLEAR     73  70  90 SW7       29.95S
NORTH VERNON + CLEAR     75  75 100 S9        29.96R

$$




USA.gov is the U.S. government's official web portal to all federal, state and local government web resources and services.